| time (UTC) | temp F | wind direction | speed MPH | gust MPH | rain 1hr in | rain 24hr in | rain mn in | humidity % | barometer mb |
| 20260507213533 | 55 | 290 | 3.0 | 4.0 | 0.00 | 0.01 | 0.01 | 50 | 1006.8 |
| 20260507213030 | 54 | 122 | 1.0 | 1.0 | 0.00 | 0.01 | 0.01 | 55 | 1007.0 |
| 20260507212526 | 55 | 283 | 4.0 | 4.0 | 0.00 | 0.01 | 0.01 | 50 | 1006.9 |
| 20260507212023 | 55 | 285 | 5.0 | 7.0 | 0.00 | 0.01 | 0.01 | 51 | 1006.8 |
| 20260507211520 | 56 | 307 | 5.0 | 7.0 | 0.00 | 0.01 | 0.01 | 50 | 1007.0 |
| 20260507211016 | 56 | 134 | 2.0 | 3.0 | 0.00 | 0.01 | 0.01 | 50 | 1006.7 |
| 20260507210513 | 54 | 133 | 2.0 | 2.0 | 0.00 | 0.01 | 0.01 | 51 | 1006.7 |
| 20260507210010 | 52 | 235 | 2.0 | 2.0 | 0.00 | 0.01 | 0.01 | 53 | 1006.6 |
| 20260507205507 | 51 | 125 | 1.0 | 1.0 | 0.00 | 0.01 | 0.01 | 55 | 1006.7 |
| 20260507205003 | 52 | 306 | 2.0 | 3.0 | 0.00 | 0.01 | 0.01 | 54 | 1006.8 |
| 20260507204459 | 52 | 235 | 2.0 | 4.0 | 0.00 | 0.01 | 0.01 | 54 | 1006.7 |
| 20260507203957 | 53 | 199 | 2.0 | 4.0 | 0.00 | 0.01 | 0.01 | 55 | 1006.9 |
| 20260507203455 | 53 | 211 | 3.0 | 8.0 | 0.00 | 0.01 | 0.01 | 51 | 1006.8 |
| 20260507202951 | 55 | 171 | 3.0 | 4.0 | 0.00 | 0.01 | 0.01 | 48 | 1006.7 |
| 20260507202447 | 54 | 197 | 2.0 | 2.0 | 0.00 | 0.01 | 0.01 | 51 | 1006.9 |
| 20260507201944 | 55 | 110 | 1.0 | 2.0 | 0.00 | 0.01 | 0.01 | 50 | 1006.8 |
| 20260507201439 | 54 | 217 | 1.0 | 1.0 | 0.00 | 0.01 | 0.01 | 53 | 1006.7 |
| 20260507200936 | 54 | 318 | 6.0 | 8.0 | 0.00 | 0.01 | 0.01 | 50 | 1006.9 |
| 20260507200431 | 55 | 61 | 5.0 | 7.0 | 0.00 | 0.01 | 0.01 | 48 | 1007.1 |
| 20260507195927 | 55 | 286 | 9.0 | 11.0 | 0.00 | 0.01 | 0.01 | 49 | 1006.7 |
| 20260507195425 | 55 | 112 | 4.0 | 6.0 | 0.00 | 0.01 | 0.01 | 48 | 1006.7 |
| 20260507194922 | 56 | 154 | 1.0 | 1.0 | 0.00 | 0.01 | 0.01 | 50 | 1006.7 |
| 20260507194419 | 55 | 312 | 4.0 | 7.0 | 0.00 | 0.01 | 0.01 | 49 | 1006.9 |
| 20260507193915 | 52 | 228 | 2.0 | 4.0 | 0.00 | 0.01 | 0.01 | 53 | 1007.1 |
| 20260507193412 | 53 | 71 | 2.0 | 4.0 | 0.00 | 0.01 | 0.01 | 52 | 1007.2 |
| 20260507192908 | 53 | 141 | 1.0 | 1.0 | 0.00 | 0.01 | 0.01 | 53 | 1007.2 |
| 20260507192404 | 53 | 233 | 3.0 | 3.0 | 0.00 | 0.01 | 0.01 | 53 | 1007.3 |
| 20260507191901 | 53 | 327 | 4.0 | 8.0 | 0.00 | 0.01 | 0.01 | 51 | 1007.3 |
| 20260507191357 | 54 | 193 | 3.0 | 3.0 | 0.00 | 0.01 | 0.01 | 49 | 1007.1 |
| 20260507190854 | 54 | 8 | 4.0 | 6.0 | 0.00 | 0.01 | 0.01 | 50 | 1007.2 |
| 20260507190352 | 52 | 109 | 4.0 | 7.0 | 0.00 | 0.01 | 0.01 | 52 | 1007.3 |
| 20260507185851 | 53 | 83 | 2.0 | 6.0 | 0.00 | 0.01 | 0.01 | 50 | 1007.4 |
| 20260507185348 | 54 | 315 | 8.0 | 11.0 | 0.00 | 0.01 | 0.01 | 50 | 1007.3 |
| 20260507184845 | 56 | 266 | 6.0 | 7.0 | 0.00 | 0.01 | 0.01 | 48 | 1007.2 |
| 20260507184342 | 53 | 88 | 2.0 | 2.0 | 0.00 | 0.01 | 0.01 | 50 | 1007.5 |
| 20260507183839 | 52 | 252 | 0.0 | 2.0 | 0.00 | 0.01 | 0.01 | 53 | 1007.3 |
| 20260507183336 | 51 | 315 | 0.0 | 0.0 | 0.00 | 0.01 | 0.01 | 54 | 1007.6 |
| 20260507182834 | 51 | 72 | 2.0 | 3.0 | 0.00 | 0.01 | 0.01 | 53 | 1007.5 |
| 20260507182329 | 51 | 181 | 3.0 | 4.0 | 0.00 | 0.01 | 0.01 | 53 | 1007.6 |
| 20260507181825 | 51 | 175 | 0.0 | 0.0 | 0.00 | 0.01 | 0.01 | 55 | 1007.8 |
| 20260507181321 | 52 | 52 | 4.0 | 10.0 | 0.00 | 0.01 | 0.01 | 52 | 1007.7 |
| 20260507180818 | 52 | 144 | 2.0 | 3.0 | 0.00 | 0.01 | 0.01 | 51 | 1007.6 |
| 20260507180310 | 51 | 297 | 3.0 | 6.0 | 0.00 | 0.01 | 0.01 | 52 | 1007.8 |
| 20260507175805 | 51 | 195 | 1.0 | 1.0 | 0.00 | 0.01 | 0.01 | 54 | 1007.9 |
| 20260507175306 | 51 | 173 | 3.0 | 4.0 | 0.00 | 0.01 | 0.01 | 52 | 1007.7 |
| 20260507174800 | 52 | 194 | 3.0 | 6.0 | 0.00 | 0.01 | 0.01 | 57 | 1007.9 |
| 20260507174258 | 51 | 186 | 3.0 | 7.0 | 0.00 | 0.01 | 0.01 | 56 | 1007.9 |
| 20260507173755 | 52 | 187 | 2.0 | 4.0 | 0.00 | 0.01 | 0.01 | 53 | 1007.6 |
| 20260507173252 | 52 | 135 | 0.0 | 1.0 | 0.00 | 0.01 | 0.01 | 53 | 1007.8 |
| 20260507172748 | 52 | 162 | 3.0 | 3.0 | 0.00 | 0.01 | 0.01 | 52 | 1007.7 |
| 20260507172245 | 51 | 162 | 1.0 | 1.0 | 0.00 | 0.01 | 0.01 | 54 | 1007.9 |
| 20260507171741 | 53 | 193 | 2.0 | 4.0 | 0.00 | 0.01 | 0.01 | 50 | 1007.8 |
| 20260507171238 | 52 | 90 | 3.0 | 4.0 | 0.00 | 0.01 | 0.01 | 53 | 1008.2 |
| 20260507170735 | 54 | 234 | 2.0 | 3.0 | 0.00 | 0.01 | 0.01 | 54 | 1007.8 |
| 20260507170232 | 53 | 262 | 6.0 | 9.0 | 0.00 | 0.01 | 0.01 | 53 | 1008.0 |
| 20260507165727 | 53 | 173 | 2.0 | 2.0 | 0.00 | 0.01 | 0.01 | 59 | 1008.0 |
| 20260507165224 | 52 | 207 | 2.0 | 3.0 | 0.00 | 0.01 | 0.01 | 55 | 1008.2 |
| 20260507164720 | 51 | 121 | 4.0 | 7.0 | 0.00 | 0.01 | 0.01 | 53 | 1008.2 |
| 20260507164217 | 54 | 181 | 0.0 | 1.0 | 0.00 | 0.01 | 0.01 | 54 | 1008.4 |
| 20260507163714 | 51 | 103 | 1.0 | 1.0 | 0.00 | 0.01 | 0.01 | 58 | 1008.2 |
| 20260507163212 | 51 | 127 | 3.0 | 3.0 | 0.00 | 0.01 | 0.01 | 52 | 1008.4 |
| 20260507162708 | 51 | 264 | 2.0 | 3.0 | 0.00 | 0.01 | 0.01 | 57 | 1008.4 |
| 20260507162204 | 51 | 154 | 2.0 | 2.0 | 0.00 | 0.01 | 0.01 | 55 | 1008.4 |
| 20260507161701 | 51 | 259 | 3.0 | 6.0 | 0.00 | 0.01 | 0.01 | 56 | 1008.5 |
| 20260507161157 | 51 | 171 | 2.0 | 2.0 | 0.00 | 0.01 | 0.01 | 56 | 1008.7 |
| 20260507160653 | 50 | 213 | 3.0 | 7.0 | 0.00 | 0.01 | 0.01 | 56 | 1008.7 |
| 20260507160150 | 51 | 190 | 2.0 | 3.0 | 0.00 | 0.01 | 0.01 | 59 | 1008.6 |
| 20260507155645 | 51 | 160 | 1.0 | 1.0 | 0.00 | 0.01 | 0.01 | 53 | 1008.7 |
| 20260507155142 | 52 | 298 | 6.0 | 7.0 | 0.00 | 0.01 | 0.01 | 57 | 1008.8 |
| 20260507154638 | 52 | 214 | 2.0 | 3.0 | 0.00 | 0.01 | 0.01 | 53 | 1008.6 |
| 20260507154136 | 49 | 154 | 1.0 | 1.0 | 0.00 | 0.01 | 0.01 | 61 | 1008.8 |
| 20260507153632 | 51 | 137 | 1.0 | 2.0 | 0.00 | 0.01 | 0.01 | 55 | 1008.9 |
| 20260507153129 | 50 | 317 | 3.0 | 4.0 | 0.00 | 0.01 | 0.01 | 61 | 1009.0 |
| 20260507152625 | 50 | 307 | 3.0 | 3.0 | 0.00 | 0.01 | 0.01 | 59 | 1008.9 |
| 20260507152121 | 50 | 263 | 4.0 | 4.0 | 0.00 | 0.01 | 0.01 | 64 | 1009.1 |
| 20260507151617 | 52 | 50 | 2.0 | 3.0 | 0.00 | 0.01 | 0.01 | 58 | 1009.2 |
| 20260507151115 | 51 | 142 | 2.0 | 2.0 | 0.00 | 0.01 | 0.01 | 57 | 1009.2 |
| 20260507150612 | 52 | 110 | 1.0 | 2.0 | 0.00 | 0.01 | 0.01 | 57 | 1009.2 |
| 20260507150108 | 51 | 55 | 0.0 | 0.0 | 0.00 | 0.01 | 0.01 | 60 | 1009.2 |
| 20260507145603 | 51 | 73 | 1.0 | 2.0 | 0.00 | 0.01 | 0.01 | 59 | 1009.2 |
| 20260507145102 | 48 | 195 | 2.0 | 3.0 | 0.00 | 0.01 | 0.01 | 63 | 1009.3 |
| 20260507144557 | 48 | 307 | 6.0 | 8.0 | 0.00 | 0.01 | 0.01 | 59 | 1009.5 |
| 20260507144056 | 48 | 317 | 1.0 | 2.0 | 0.00 | 0.01 | 0.01 | 66 | 1009.2 |
| 20260507143552 | 49 | 256 | 3.0 | 6.0 | 0.00 | 0.01 | 0.01 | 59 | 1009.3 |
| 20260507143050 | 47 | 74 | 6.0 | 7.0 | 0.00 | 0.01 | 0.01 | 60 | 1009.3 |
| 20260507142549 | 47 | 79 | 3.0 | 4.0 | 0.00 | 0.01 | 0.01 | 62 | 1009.7 |
| 20260507142047 | 47 | 246 | 2.0 | 2.0 | 0.00 | 0.01 | 0.01 | 63 | 1009.5 |
| 20260507141543 | 48 | 230 | 2.0 | 3.0 | 0.00 | 0.01 | 0.01 | 63 | 1009.5 |
| 20260507141040 | 47 | 68 | 6.0 | 8.0 | 0.00 | 0.01 | 0.01 | 60 | 1009.5 |
| 20260507140537 | 48 | 167 | 2.0 | 3.0 | 0.00 | 0.01 | 0.01 | 63 | 1009.5 |
| 20260507140034 | 48 | 55 | 3.0 | 3.0 | 0.00 | 0.01 | 0.01 | 60 | 1009.5 |
| 20260507135531 | 48 | 204 | 1.0 | 2.0 | 0.00 | 0.01 | 0.01 | 61 | 1009.4 |
| 20260507135028 | 47 | 168 | 1.0 | 1.0 | 0.00 | 0.01 | 0.01 | 70 | 1009.3 |
| 20260507134525 | 45 | 225 | 1.0 | 2.0 | 0.00 | 0.01 | 0.01 | 72 | 1009.3 |
| 20260507134020 | 46 | 266 | 4.0 | 7.0 | 0.00 | 0.01 | 0.01 | 66 | 1009.5 |
| 20260507133516 | 45 | 181 | 1.0 | 1.0 | 0.00 | 0.01 | 0.01 | 72 | 1009.4 |
| 20260507133015 | 45 | 287 | 3.0 | 4.0 | 0.00 | 0.01 | 0.01 | 70 | 1009.6 |
| 20260507132511 | 46 | 135 | 0.0 | 0.0 | 0.00 | 0.01 | 0.01 | 72 | 1009.7 |
| 20260507132007 | 45 | 237 | 1.0 | 2.0 | 0.00 | 0.01 | 0.01 | 71 | 1009.4 |
| 20260507131504 | 45 | 217 | 2.0 | 3.0 | 0.00 | 0.01 | 0.01 | 72 | 1009.7 |
| 20260507131002 | 44 | 3 | 0.0 | 0.0 | 0.00 | 0.01 | 0.01 | 74 | 1009.5 |
| 20260507130459 | 44 | 117 | 2.0 | 3.0 | 0.00 | 0.01 | 0.01 | 73 | 1009.5 |
| 20260507125957 | 44 | 211 | 2.0 | 3.0 | 0.00 | 0.01 | 0.01 | 76 | 1009.5 |
| 20260507125455 | 44 | 130 | 1.0 | 1.0 | 0.00 | 0.01 | 0.01 | 73 | 1009.5 |
| 20260507124952 | 44 | 242 | 2.0 | 2.0 | 0.00 | 0.01 | 0.01 | 76 | 1009.6 |
| 20260507124448 | 43 | 216 | 0.0 | 0.0 | 0.00 | 0.01 | 0.01 | 77 | 1009.9 |
| 20260507123946 | 42 | 176 | 0.0 | 1.0 | 0.00 | 0.01 | 0.01 | 78 | 1009.8 |
| 20260507123444 | 43 | 270 | 2.0 | 2.0 | 0.00 | 0.01 | 0.01 | 75 | 1009.6 |
| 20260507122940 | 42 | 187 | 1.0 | 1.0 | 0.00 | 0.01 | 0.01 | 78 | 1009.7 |
| 20260507122435 | 43 | 176 | 1.0 | 1.0 | 0.00 | 0.01 | 0.01 | 77 | 1009.5 |
| 20260507121931 | 42 | 133 | 1.0 | 2.0 | 0.00 | 0.01 | 0.01 | 79 | 1009.3 |
| 20260507121427 | 41 | 298 | 2.0 | 2.0 | 0.00 | 0.01 | 0.01 | 81 | 1009.6 |
| 20260507120924 | 41 | 195 | 0.0 | 1.0 | 0.00 | 0.01 | 0.01 | 81 | 1009.6 |
| 20260507120420 | 41 | 82 | 0.0 | 0.0 | 0.00 | 0.01 | 0.01 | 82 | 1009.7 |
| 20260507115916 | 42 | 71 | 1.0 | 1.0 | 0.00 | 0.01 | 0.01 | 80 | 1009.6 |
| 20260507115413 | 41 | 119 | 3.0 | 6.0 | 0.00 | 0.01 | 0.01 | 81 | 1009.4 |
| 20260507114908 | 40 | 218 | 1.0 | 1.0 | 0.00 | 0.01 | 0.01 | 85 | 1009.2 |
| 20260507114406 | 39 | 208 | 1.0 | 2.0 | 0.00 | 0.01 | 0.01 | 86 | 1009.5 |
| 20260507113903 | 40 | 186 | 0.0 | 1.0 | 0.00 | 0.01 | 0.01 | 87 | 1009.4 |
| 20260507113400 | 39 | 233 | 2.0 | 2.0 | 0.00 | 0.01 | 0.01 | 89 | 1009.5 |
| 20260507112857 | 38 | 136 | 1.0 | 1.0 | 0.00 | 0.01 | 0.01 | 92 | 1009.4 |
| 20260507112354 | 37 | 200 | 0.0 | 0.0 | 0.00 | 0.01 | 0.01 | 93 | 1009.4 |
| 20260507111852 | 37 | 199 | 0.0 | 0.0 | 0.00 | 0.01 | 0.01 | 95 | 1009.5 |
| 20260507111348 | 37 | 199 | 0.0 | 0.0 | 0.00 | 0.01 | 0.01 | 96 | 1009.4 |
| 20260507110844 | 37 | 199 | 0.0 | 0.0 | 0.00 | 0.01 | 0.01 | 99 | 1009.6 |
| 20260507110341 | 36 | 199 | 0.0 | 0.0 | 0.00 | 0.01 | 0.01 | 99 | 1009.3 |
| 20260507105838 | 36 | 199 | 0.0 | 0.0 | 0.00 | 0.01 | 0.01 | 99 | 1009.4 |
| 20260507105334 | 36 | 202 | 0.0 | 0.0 | 0.00 | 0.01 | 0.01 | 99 | 1009.3 |
| 20260507104831 | 35 | 202 | 0.0 | 0.0 | 0.00 | 0.01 | 0.01 | 99 | 1009.2 |
| 20260507104328 | 33 | 202 | 0.0 | 0.0 | 0.00 | 0.01 | 0.01 | 99 | 1009.2 |
| 20260507103824 | 33 | 202 | 0.0 | 0.0 | 0.00 | 0.01 | 0.01 | 99 | 1009.2 |
| 20260507103320 | 33 | 202 | 0.0 | 0.0 | 0.00 | 0.01 | 0.01 | 99 | 1009.0 |
| 20260507102817 | 33 | 202 | 0.0 | 0.0 | 0.00 | 0.01 | 0.01 | 99 | 1009.1 |
| 20260507102314 | 33 | 202 | 0.0 | 0.0 | 0.00 | 0.01 | 0.01 | 99 | 1009.1 |
| 20260507101810 | 33 | 202 | 0.0 | 0.0 | 0.00 | 0.01 | 0.01 | 99 | 1008.9 |
| 20260507101310 | 33 | 203 | 0.0 | 0.0 | 0.00 | 0.01 | 0.01 | 99 | 1009.0 |
| 20260507100808 | 33 | 203 | 0.0 | 0.0 | 0.00 | 0.01 | 0.01 | 99 | 1009.0 |
| 20260507100306 | 34 | 203 | 0.0 | 0.0 | 0.00 | 0.01 | 0.01 | 99 | 1009.0 |
| 20260507095804 | 34 | 203 | 0.0 | 0.0 | 0.00 | 0.01 | 0.01 | 99 | 1008.8 |
| 20260507095300 | 34 | 203 | 0.0 | 0.0 | 0.00 | 0.01 | 0.01 | 99 | 1008.9 |
| 20260507094757 | 34 | 175 | 0.0 | 0.0 | 0.00 | 0.01 | 0.01 | 99 | 1009.1 |
| 20260507094254 | 34 | 176 | 0.0 | 0.0 | 0.00 | 0.01 | 0.01 | 99 | 1009.1 |
| 20260507093751 | 35 | 173 | 0.0 | 0.0 | 0.00 | 0.01 | 0.01 | 99 | 1008.9 |
| 20260507093249 | 35 | 173 | 0.0 | 0.0 | 0.00 | 0.01 | 0.01 | 99 | 1008.9 |
| 20260507092747 | 35 | 173 | 0.0 | 0.0 | 0.00 | 0.01 | 0.01 | 99 | 1009.0 |
| 20260507092242 | 35 | 173 | 0.0 | 0.0 | 0.00 | 0.01 | 0.01 | 99 | 1009.2 |
| 20260507091739 | 36 | 173 | 0.0 | 0.0 | 0.00 | 0.01 | 0.01 | 99 | 1008.9 |
| 20260507091236 | 36 | 173 | 0.0 | 0.0 | 0.00 | 0.01 | 0.01 | 99 | 1009.0 |
| 20260507090731 | 37 | 173 | 0.0 | 0.0 | 0.00 | 0.01 | 0.01 | 99 | 1009.1 |
| 20260507090228 | 37 | 173 | 0.0 | 0.0 | 0.00 | 0.01 | 0.01 | 98 | 1009.1 |
| 20260507085725 | 38 | 173 | 0.0 | 0.0 | 0.00 | 0.01 | 0.01 | 98 | 1009.0 |
| 20260507085222 | 38 | 172 | 0.0 | 0.0 | 0.00 | 0.01 | 0.01 | 97 | 1009.0 |
| 20260507084719 | 38 | 172 | 0.0 | 0.0 | 0.00 | 0.01 | 0.01 | 97 | 1009.0 |
| 20260507084215 | 39 | 175 | 0.0 | 0.0 | 0.00 | 0.01 | 0.01 | 97 | 1008.9 |
| 20260507083713 | 39 | 175 | 0.0 | 0.0 | 0.00 | 0.01 | 0.01 | 97 | 1008.9 |
| 20260507083209 | 39 | 181 | 0.0 | 0.0 | 0.00 | 0.01 | 0.01 | 97 | 1008.8 |
| 20260507082705 | 39 | 177 | 0.0 | 0.0 | 0.00 | 0.01 | 0.01 | 97 | 1008.7 |
| 20260507082201 | 39 | 177 | 0.0 | 1.0 | 0.00 | 0.01 | 0.01 | 97 | 1008.8 |
| 20260507081658 | 39 | 166 | 0.0 | 0.0 | 0.00 | 0.01 | 0.01 | 97 | 1008.7 |
| 20260507081154 | 39 | 159 | 0.0 | 0.0 | 0.00 | 0.01 | 0.01 | 97 | 1008.7 |
| 20260507080651 | 39 | 159 | 0.0 | 0.0 | 0.00 | 0.01 | 0.01 | 97 | 1009.0 |
| 20260507080142 | 40 | 196 | 0.0 | 0.0 | 0.00 | 0.01 | 0.01 | 98 | 1009.0 |
| 20260507075637 | 40 | 196 | 0.0 | 0.0 | 0.00 | 0.01 | 0.01 | 97 | 1008.9 |
| 20260507075133 | 40 | 180 | 0.0 | 0.0 | 0.00 | 0.01 | 0.01 | 98 | 1008.8 |
| 20260507074630 | 40 | 197 | 0.0 | 0.0 | 0.00 | 0.01 | 0.01 | 97 | 1009.1 |
| 20260507074129 | 40 | 197 | 0.0 | 0.0 | 0.00 | 0.01 | 0.01 | 96 | 1008.9 |
| 20260507073625 | 40 | 197 | 0.0 | 0.0 | 0.00 | 0.01 | 0.01 | 96 | 1008.7 |
| 20260507073121 | 41 | 179 | 0.0 | 0.0 | 0.00 | 0.01 | 0.01 | 95 | 1008.8 |
| 20260507072619 | 41 | 179 | 1.0 | 1.0 | 0.00 | 0.01 | 0.01 | 94 | 1008.7 |
| 20260507072116 | 41 | 161 | 0.0 | 0.0 | 0.00 | 0.01 | 0.01 | 94 | 1008.7 |
| 20260507071613 | 41 | 190 | 0.0 | 1.0 | 0.00 | 0.01 | 0.01 | 94 | 1008.8 |
| 20260507071110 | 41 | 191 | 0.0 | 0.0 | 0.00 | 0.01 | 0.01 | 93 | 1008.9 |
| 20260507070607 | 41 | 179 | 0.0 | 1.0 | 0.00 | 0.01 | 0.01 | 94 | 1008.7 |
| 20260507070104 | 41 | 238 | 2.0 | 3.0 | 0.00 | 0.01 | 0.01 | 93 | 1008.9 |
| 20260507065600 | 41 | 139 | 0.0 | 1.0 | 0.00 | 0.01 | 0.01 | 94 | 1008.7 |
| 20260507065057 | 42 | 85 | 2.0 | 4.0 | 0.00 | 0.01 | 0.01 | 93 | 1008.8 |
| 20260507064555 | 42 | 161 | 1.0 | 1.0 | 0.00 | 0.01 | 0.01 | 92 | 1008.5 |
| 20260507064054 | 42 | 301 | 4.0 | 6.0 | 0.00 | 0.01 | 0.01 | 93 | 1008.3 |
| 20260507063550 | 42 | 182 | 3.0 | 4.0 | 0.00 | 0.01 | 0.01 | 95 | 1008.7 |
| 20260507063048 | 42 | 64 | 4.0 | 7.0 | 0.00 | 0.01 | 0.01 | 97 | 1008.3 |
| 20260507062544 | 43 | 216 | 3.0 | 4.0 | 0.00 | 0.01 | 0.01 | 99 | 1008.4 |
| 20260507062042 | 43 | 155 | 0.0 | 1.0 | 0.00 | 0.01 | 0.01 | 99 | 1008.3 |
| 20260507061539 | 43 | 190 | 0.0 | 0.0 | 0.00 | 0.01 | 0.01 | 99 | 1008.4 |
| 20260507061037 | 43 | 89 | 0.0 | 1.0 | 0.00 | 0.01 | 0.01 | 99 | 1008.5 |
| 20260507060535 | 43 | 151 | 1.0 | 1.0 | 0.00 | 0.01 | 0.01 | 99 | 1008.4 |
| 20260507060031 | 43 | 312 | 0.0 | 1.0 | 0.00 | 0.01 | 0.01 | 99 | 1007.9 |
| 20260507055526 | 43 | 312 | 4.0 | 4.0 | 0.00 | 0.01 | 0.01 | 99 | 1008.3 |
| 20260507055022 | 43 | 109 | 0.0 | 1.0 | 0.00 | 0.01 | 0.01 | 99 | 1008.0 |
| 20260507054518 | 43 | 64 | 1.0 | 1.0 | 0.00 | 0.01 | 0.01 | 99 | 1008.0 |
| 20260507054016 | 43 | 64 | 0.0 | 0.0 | 0.00 | 0.01 | 0.01 | 99 | 1008.2 |
| 20260507053514 | 43 | 74 | 0.0 | 1.0 | 0.00 | 0.01 | 0.01 | 99 | 1008.3 |
| 20260507053012 | 43 | 74 | 0.0 | 0.0 | 0.07 | 0.01 | 0.01 | 99 | 1008.3 |
| 20260507052509 | 43 | 74 | 0.0 | 0.0 | 0.07 | 0.01 | 0.01 | 99 | 1008.4 |
| 20260507052006 | 43 | 74 | 0.0 | 1.0 | 0.00 | 0.00 | 0.00 | 99 | 1008.5 |
| 20260507051504 | 43 | 74 | 0.0 | 0.0 | 0.00 | 0.00 | 0.00 | 99 | 1008.4 |
| 20260507051000 | 43 | 74 | 0.0 | 0.0 | 0.00 | 0.00 | 0.00 | 99 | 1008.3 |
| 20260507050456 | 43 | 181 | 0.0 | 0.0 | 0.00 | 0.00 | 0.00 | 99 | 1008.7 |
| 20260507045953 | 42 | 181 | 0.0 | 0.0 | 0.00 | 0.00 | 0.00 | 99 | 1008.4 |
| 20260507045450 | 42 | 181 | 0.0 | 0.0 | 0.00 | 0.00 | 0.00 | 99 | 1008.5 |
| 20260507044948 | 43 | 181 | 0.0 | 0.0 | 0.00 | 0.00 | 0.00 | 99 | 1008.7 |
| 20260507044444 | 42 | 181 | 0.0 | 0.0 | 0.00 | 0.00 | 0.00 | 99 | 1008.6 |
| 20260507043940 | 43 | 181 | 0.0 | 0.0 | 0.00 | 0.00 | 0.00 | 99 | 1008.8 |
| 20260507043436 | 43 | 181 | 0.0 | 0.0 | 0.00 | 0.00 | 0.00 | 99 | 1008.5 |
| 20260507042933 | 42 | 181 | 0.0 | 0.0 | 0.00 | 0.00 | 0.00 | 99 | 1008.6 |
| 20260507042430 | 43 | 181 | 0.0 | 0.0 | 0.00 | 0.00 | 0.00 | 99 | 1008.2 |
| 20260507041925 | 42 | 181 | 0.0 | 0.0 | 0.00 | 0.00 | 0.00 | 99 | 1008.2 |
| 20260507041422 | 43 | 181 | 0.0 | 0.0 | 0.00 | 0.00 | 0.00 | 99 | 1008.4 |
| 20260507040920 | 42 | 181 | 0.0 | 0.0 | 0.00 | 0.00 | 0.00 | 99 | 1007.8 |
| 20260507040415 | 43 | 181 | 0.0 | 0.0 | 0.00 | 0.00 | 0.00 | 99 | 1007.9 |
| 20260507035911 | 43 | 181 | 0.0 | 0.0 | 0.00 | 0.52 | 0.52 | 99 | 1008.0 |
| 20260507035408 | 43 | 181 | 0.0 | 0.0 | 0.00 | 0.52 | 0.52 | 99 | 1008.2 |
| 20260507034905 | 43 | 181 | 0.0 | 0.0 | 0.00 | 0.52 | 0.52 | 99 | 1007.6 |
| 20260507034401 | 43 | 181 | 0.0 | 0.0 | 0.00 | 0.52 | 0.52 | 99 | 1007.9 |
| 20260507033859 | 43 | 181 | 0.0 | 0.0 | 0.00 | 0.52 | 0.52 | 99 | 1008.2 |
| 20260507033358 | 43 | 181 | 0.0 | 0.0 | 0.00 | 0.52 | 0.52 | 99 | 1008.2 |
| 20260507032854 | 43 | 181 | 0.0 | 0.0 | 0.00 | 0.52 | 0.52 | 99 | 1008.3 |
| 20260507032351 | 43 | 182 | 0.0 | 0.0 | 0.00 | 0.52 | 0.52 | 99 | 1008.4 |
| 20260507031847 | 43 | 181 | 0.0 | 0.0 | 0.00 | 0.52 | 0.52 | 99 | 1008.2 |
| 20260507031344 | 43 | 182 | 0.0 | 0.0 | 0.00 | 0.52 | 0.52 | 99 | 1008.3 |
| 20260507030840 | 43 | 182 | 0.0 | 1.0 | 0.00 | 0.52 | 0.52 | 99 | 1008.5 |
| 20260507030338 | 43 | 182 | 0.0 | 0.0 | 0.00 | 0.52 | 0.52 | 99 | 1008.7 |
| 20260507025834 | 44 | 182 | 0.0 | 0.0 | 0.00 | 0.52 | 0.52 | 99 | 1008.4 |
| 20260507025332 | 43 | 182 | 0.0 | 0.0 | 0.00 | 0.52 | 0.52 | 99 | 1008.5 |
| 20260507024830 | 43 | 182 | 0.0 | 0.0 | 0.00 | 0.52 | 0.52 | 99 | 1008.3 |
| 20260507024327 | 43 | 182 | 0.0 | 0.0 | 0.00 | 0.52 | 0.52 | 99 | 1008.3 |
| 20260507023822 | 43 | 182 | 0.0 | 1.0 | 0.00 | 0.52 | 0.52 | 99 | 1008.5 |
| 20260507023319 | 43 | 181 | 0.0 | 0.0 | 0.00 | 0.52 | 0.52 | 99 | 1008.8 |
| 20260507022817 | 44 | 181 | 0.0 | 0.0 | 0.00 | 0.52 | 0.52 | 99 | 1008.6 |
| 20260507022313 | 44 | 84 | 0.0 | 0.0 | 0.00 | 0.52 | 0.52 | 99 | 1008.8 |
| 20260507021809 | 44 | 84 | 0.0 | 0.0 | 0.00 | 0.52 | 0.52 | 99 | 1008.5 |
| 20260507021305 | 44 | 84 | 0.0 | 0.0 | 0.00 | 0.52 | 0.52 | 99 | 1008.7 |
| 20260507020803 | 44 | 84 | 0.0 | 0.0 | 0.00 | 0.52 | 0.52 | 99 | 1008.7 |
| 20260507020259 | 44 | 84 | 0.0 | 0.0 | 0.00 | 0.52 | 0.52 | 99 | 1009.0 |
| 20260507015757 | 44 | 84 | 0.0 | 0.0 | 0.00 | 0.52 | 0.52 | 99 | 1008.6 |
| 20260507015254 | 44 | 84 | 0.0 | 0.0 | 0.00 | 0.52 | 0.52 | 99 | 1008.5 |
| 20260507014751 | 44 | 84 | 0.0 | 0.0 | 0.00 | 0.52 | 0.52 | 99 | 1008.9 |
| 20260507014247 | 44 | 84 | 0.0 | 0.0 | 0.00 | 0.52 | 0.52 | 99 | 1008.7 |
| 20260507013744 | 44 | 84 | 0.0 | 0.0 | 0.00 | 0.52 | 0.52 | 99 | 1008.9 |
| 20260507013241 | 44 | 84 | 0.0 | 0.0 | 0.00 | 0.52 | 0.52 | 99 | 1009.0 |
| 20260507012739 | 44 | 84 | 0.0 | 0.0 | 0.00 | 0.52 | 0.52 | 99 | 1008.8 |
| 20260507012234 | 44 | 86 | 0.0 | 0.0 | 0.00 | 0.52 | 0.52 | 99 | 1008.7 |
| 20260507011732 | 44 | 83 | 0.0 | 0.0 | 0.00 | 0.52 | 0.52 | 99 | 1008.8 |
| 20260507011228 | 44 | 83 | 0.0 | 0.0 | 0.00 | 0.52 | 0.52 | 99 | 1008.7 |
| 20260507010728 | 44 | 83 | 0.0 | 0.0 | 0.00 | 0.52 | 0.52 | 99 | 1008.6 |
| 20260507010224 | 44 | 83 | 0.0 | 0.0 | 0.00 | 0.52 | 0.52 | 99 | 1008.6 |
| 20260507005722 | 44 | 83 | 0.0 | 0.0 | 0.00 | 0.52 | 0.52 | 99 | 1008.4 |
| 20260507005218 | 44 | 83 | 0.0 | 1.0 | 0.00 | 0.52 | 0.52 | 99 | 1008.3 |
| 20260507004714 | 44 | 170 | 0.0 | 0.0 | 0.00 | 0.52 | 0.52 | 99 | 1008.3 |
| 20260507004212 | 44 | 181 | 0.0 | 0.0 | 0.00 | 0.52 | 0.52 | 99 | 1008.0 |
| 20260507003708 | 44 | 189 | 1.0 | 1.0 | 0.00 | 0.52 | 0.52 | 99 | 1008.0 |
| 20260507003203 | 44 | 225 | 1.0 | 1.0 | 0.00 | 0.52 | 0.52 | 99 | 1008.5 |
| 20260507002700 | 44 | 186 | 0.0 | 0.0 | 0.00 | 0.52 | 0.52 | 99 | 1008.0 |
| 20260507002156 | 44 | 212 | 1.0 | 1.0 | 0.00 | 0.52 | 0.52 | 99 | 1007.9 |
| 20260507001653 | 44 | 206 | 0.0 | 1.0 | 0.00 | 0.52 | 0.52 | 99 | 1008.2 |
| 20260507001150 | 44 | 202 | 0.0 | 0.0 | 0.00 | 0.52 | 0.52 | 99 | 1008.0 |
| 20260507000646 | 44 | 204 | 0.0 | 0.0 | 0.00 | 0.52 | 0.52 | 99 | 1008.2 |
| 20260507000142 | 44 | 204 | 0.0 | 0.0 | 0.00 | 0.52 | 0.52 | 99 | 1007.9 |
| 20260506235639 | 44 | 201 | 0.0 | 0.0 | 0.00 | 0.52 | 0.52 | 99 | 1007.6 |
| 20260506235139 | 45 | 211 | 1.0 | 2.0 | 0.00 | 0.52 | 0.52 | 99 | 1007.8 |
| 20260506234637 | 45 | 159 | 0.0 | 0.0 | 0.00 | 0.52 | 0.52 | 99 | 1007.6 |
| 20260506234134 | 45 | 76 | 0.0 | 1.0 | 0.00 | 0.52 | 0.52 | 99 | 1007.5 |
| 20260506233631 | 45 | 182 | 0.0 | 1.0 | 0.00 | 0.52 | 0.52 | 99 | 1007.8 |
| 20260506233128 | 45 | 204 | 1.0 | 2.0 | 0.00 | 0.52 | 0.52 | 99 | 1007.5 |
| 20260506232624 | 45 | 171 | 1.0 | 1.0 | 0.00 | 0.52 | 0.52 | 99 | 1007.5 |
| 20260506232120 | 45 | 181 | 0.0 | 1.0 | 0.00 | 0.52 | 0.52 | 99 | 1007.4 |
| 20260506231617 | 45 | 171 | 1.0 | 1.0 | 0.00 | 0.52 | 0.52 | 99 | 1007.4 |
| 20260506231115 | 45 | 130 | 0.0 | 1.0 | 0.00 | 0.52 | 0.52 | 99 | 1007.5 |
| 20260506230612 | 45 | 229 | 2.0 | 3.0 | 0.00 | 0.52 | 0.52 | 99 | 1007.3 |
| 20260506230109 | 45 | 154 | 1.0 | 2.0 | 0.00 | 0.52 | 0.52 | 99 | 1007.1 |
| 20260506225605 | 45 | 94 | 1.0 | 1.0 | 0.00 | 0.52 | 0.52 | 99 | 1007.1 |
| 20260506225102 | 46 | 283 | 2.0 | 2.0 | 0.00 | 0.52 | 0.52 | 99 | 1007.0 |
| 20260506224559 | 46 | 214 | 1.0 | 2.0 | 0.00 | 0.52 | 0.52 | 98 | 1007.1 |
| 20260506224055 | 46 | 72 | 1.0 | 3.0 | 0.00 | 0.52 | 0.52 | 98 | 1006.8 |
| 20260506223551 | 46 | 139 | 0.0 | 1.0 | 0.00 | 0.52 | 0.52 | 98 | 1007.0 |
| 20260506223048 | 46 | 181 | 0.0 | 0.0 | 0.00 | 0.52 | 0.52 | 98 | 1006.7 |
| 20260506222545 | 46 | 60 | 0.0 | 1.0 | 0.00 | 0.52 | 0.52 | 99 | 1006.7 |
| 20260506222041 | 46 | 172 | 2.0 | 3.0 | 0.00 | 0.52 | 0.52 | 99 | 1006.7 |
| 20260506221539 | 46 | 167 | 0.0 | 1.0 | 0.00 | 0.52 | 0.52 | 99 | 1006.9 |
| 20260506221037 | 46 | 177 | 4.0 | 6.0 | 0.00 | 0.52 | 0.52 | 99 | 1006.7 |
| 20260506220532 | 46 | 200 | 1.0 | 1.0 | 0.00 | 0.52 | 0.52 | 99 | 1006.7 |
| 20260506220028 | 46 | 195 | 1.0 | 2.0 | 0.00 | 0.52 | 0.52 | 99 | 1006.8 |
| 20260506215525 | 46 | 214 | 2.0 | 2.0 | 0.00 | 0.52 | 0.52 | 99 | 1006.8 |
| 20260506215020 | 46 | 170 | 2.0 | 2.0 | 0.00 | 0.52 | 0.52 | 99 | 1006.8 |
| 20260506214518 | 46 | 179 | 0.0 | 0.0 | 0.00 | 0.52 | 0.52 | 99 | 1006.3 |
| 20260506214015 | 46 | 100 | 3.0 | 3.0 | 0.00 | 0.52 | 0.52 | 99 | 1006.6 |